277  
FPUS83 KFGF 251131  
OPUFGF  
PRAIRIE TO PINES WEATHER ROUNDUP  
NATIONAL WEATHER SERVICE EASTERN NORTH DAKOTA/GRAND FORKS ND  
600 AM CDT SAT MAR 25 2017  
 
**SATELLITE DATA USED TO AUGMENT SKY COVER AT AUTOMATED STATIONS**  
***** WEATHER ACROSS EASTERN NORTH DAKOTA *****  
 
CITY SKY/WX TMP DP RH WIND PRES REMARKS  
GRAND FORKS FAIR 27 26 96 SE7 30.16F WCI 19  
GRAND FORKS AF FAIR 25 25 100 SE6 30.15F WCI 18  
GRAND CITY NWS NOT AVBL  
BUXTON NOT AVBL  
DEVILS LAKE FAIR 26 25 96 SE9 30.10F WCI 17  
FARGO FAIR 29 27 92 SE3 30.17S  
WAHPETON ARPT FAIR 28 27 93 E3 30.18R  

 
 
***** WEATHER ACROSS CENTRAL AND WESTERN NORTH DAKOTA *****  
 
CITY SKY/WX TMP DP RH WIND PRES REMARKS  
JAMESTOWN FAIR 25 24 96 SE3 30.11F FOG  
BISMARCK CLOUDY 31 31 100 SE10 30.04F FOG WCI 22  
MINOT CLOUDY 32 30 92 SE10 29.97F WCI 24  
MINOT AFB CLOUDY 32 30 93 SE15 29.96F WCI 22  
GARRISON N/A 30 29 96 SE14 29.97F WCI 19  
WILLISTON FAIR 43 32 65 S12 29.84S  
DICKINSON FAIR 33 29 85 S18 29.87F WCI 22  
HETTINGER FAIR 34 29 82 SE10 29.95S  

 
 
***** OTHER OBSERVATIONS NORTHEAST NORTH DAKOTA *****  
 
CITY SKY/WX TMP DP RH WIND PRES REMARKS  
WALHALLA NOT AVBL  
LANGDON FAIR 23 25 100 SE9 30.09F WCI 13  
CAVALIER N/A 25 25 100 CALM 30.14F  
GRAFTON FAIR 28 28 100 SE7 30.18F WCI 21  
CANDO NOT AVBL  
FORT TOTTEN N/A 26 26 100 SE7 29.95S WCI 18  
ROLLA CLOUDY 27 27 100 S17 30.04F FOG WCI 14  
RUGBY N/A 27 27 100 SE16 30.04F WCI 14  
***** THE ABOVE OBSERVATIONS ARE NON NWS ARE NOT QUALITY  
CONTROLLED AND MAY MIS-REPORT RAIN FOR SNOW...  

 
 
***** OTHER OBSERVATIONS SOUTHEAST NORTH DAKOTA *****  
 
CITY SKY/WX TMP DP RH WIND PRES REMARKS  
COOPERSTOWN FAIR 27 27 100 SE7 30.12F WCI 19  
VALLEY CITY FAIR 25 25 100 SE5 30.15S WCI 19  
OAKES NOT AVBL  
GWINNER FOG 27 27 100 MISG 30.15 VSB 0  
SHEYENNE NWR N/A 20 19 96 E2 29.95S  
BUFFALO NOT AVBL  
WYNDMERE N/A 25 27 100 NW1 N/A  
***** THE ABOVE OBSERVATIONS ARE NON NWS ARE NOT QUALITY  
CONTROLLED AND MAY MIS-REPORT RAIN FOR SNOW...  

 
 
***** WEATHER ACROSS NORTHERN MINNESOTA *****  
 
CITY SKY/WX TMP DP RH WIND PRES REMARKS  
FLAG ISLAND FAIR 28 25 86 SE6 30.22S WCI 22  
WARROAD FAIR 28 25 86 SE3 30.22S  
ROSEAU FAIR 28 25 86 SE7 30.20F WCI 21  
HALLOCK FAIR 30 28 93 SE9 30.16F WCI 22  
THF RVR FALLS FAIR N/A N/A N/A SE8 30.20R  
HALSTAD N/A 29 27 91 SE6 N/A WCI 23  
FOSSTON FAIR 25 25 100 CALM 30.20R  
BAUDETTE FAIR 27 24 89 E7 30.22R WCI 19  
WASKISH CLOUDY 30 28 93 E3 30.22S  
CROOKSTON FAIR 30 28 93 SE8 30.20R WCI 23  

 
***** WEATHER ACROSS CENTRAL AND WEST MINNESOTA *****  
 
CITY SKY/WX TMP DP RH WIND PRES REMARKS  
BEMIDJI CLOUDY 33 30 88 SE8 30.19S  
PARK RAPIDS CLOUDY 36 26 67 E9 30.18S  
WADENA CLOUDY 34 28 80 E12 30.18R  
DETROIT LAKES CLOUDY 36 32 87 SE8 30.18S  
MOORHEAD FAIR 28 27 93 E3 30.18F  
FERGUS FALLS FAIR 30 27 86 SE5 30.21R  
ELBOW LAKE CLOUDY 32 31 94 SE12 30.16F WCI 23  
MORRIS MN CLOUDY 34 30 86 E13 30.16S WCI 25  
STAPLES CLOUDY 34 27 75 E9G20 30.19F  
WHEATON CLOUDY 34 30 86 E9 30.18S  

 
***** WEATHER ELSEWHERE ACROSS MINNESOTA *****  
 
CITY SKY/WX TMP DP RH WIND PRES REMARKS  
DULUTH CLOUDY 32 29 88 E13 30.24R WCI 22  
INTRNTL FALLS CLOUDY 33 29 85 E7 30.23F  
ELY CLOUDY 30 27 86 E5 30.26S  
CLOQUET CLOUDY 32 27 80 E9 30.23R WCI 24  
BRAINERD MOCLDY 33 29 85 E5 30.21R  
HIBBING CLOUDY 31 28 89 E7 30.24S WCI 24  
ALEXANDRIA CLOUDY 32 29 88 E15G22 30.17S WCI 22  
SAINT CLOUD CLOUDY 34 30 85 E8 30.18S  
MINNEAPOLIS CLOUDY 37 30 75 NE12 30.16S  

 
 
***** WEATHER ACROSS SOUTH DAKOTA *****  
 
CITY SKY/WX TMP DP RH WIND PRES REMARKS  
SIOUX FALLS CLOUDY 35 34 96 NE15 30.11R FOG  
BROOKINGS CLOUDY 32 30 92 E14 30.11S WCI 22  
WATERTOWN CLOUDY 32 30 92 E9 30.10F WCI 24  
HURON CLOUDY 35 32 88 E7 30.11F  
SISSETON N/A 29 28 96 CALM 30.15S  
ABERDEEN CLOUDY 29 26 89 E5 30.14S WCI 24  
MITCHELL CLOUDY 35 32 88 E10 30.13R  
PIERRE FOG 32 31 96 SE9 30.08R VSB 3/4 WCI 24  
MOBRIDGE CLOUDY 30 27 88 SE13 30.04S FOG WCI 20  
RAPID CITY FAIR 34 27 75 S12 29.94F  

 
 
***** SOME WEATHER IN NEARBY STATES *****  
 
CITY SKY/WX TMP DP RH WIND PRES REMARKS  
GLASGOW MT FAIR 43 31 62 NW7 29.79R  
GREAT FALLS MT FAIR 42 27 55 SW14 29.90R  
CHEYENNE WY FAIR 29 24 82 SW9 30.02F WCI 20  
SCOTTSBLUFF NE FAIR 30 25 81 E8 30.03S WCI 22  
OMAHA NE RAIN 41 37 86 N16 29.95R FOG  
DES MOINES IA RAIN 42 41 96 NE15 29.92R FOG  
DAVENPORT IA CLOUDY 41 39 93 E22G29 29.93F  
CHICAGO IL RAIN 41 38 89 N14 30.04R FOG  
EAU CLAIRE WI CLOUDY 36 31 82 E16 30.18R  
LA CROSSE WI CLOUDY 39 34 82 NE8 30.12S HAZE  

 
 
***** SOME NATIONAL WEATHER *****  
 
CITY SKY/WX TMP DP RH WIND PRES REMARKS  
LA GUARDIA NY CLOUDY 55 38 52 VRB3 30.12R  
RALEIGH NC MOCLDY 54 49 83 SW3 30.32R  
ATLANTA GA MOCLDY 58 51 78 SE3 30.28R  
NEW ORLEANS LA FAIR 71 67 87 SE14 30.07R  
OKLAHOMA CITY CLOUDY 47 43 86 NW22G31 29.92R  
ALBUQUERQUE NM FAIR 41 18 39 S5 30.17R  
SALT LAKE CITY CLOUDY 49 40 71 W9 29.99S  
LOS ANGELES CA FAIR 56 53 90 W10 30.12F  
BOISE ID FAIR 39 36 89 SE7 30.08S  
SEATTLE WA LGT RAIN 45 40 82 S12 30.05S  

 
 
*** WEATHER ACROSS MANITOBA...SASKATCHEWAN AND ONTARIO ***  
***ONTARIO***  
 
CITY SKY/WX TMP DP RH WIND PRES REMARKS  
GERALDTON CLEAR 0 -8 71 VRB2 30.43S  
THUNDER BAY PTCLDY 25 14 63 E10 30.38R WCI 15  
SIOUX LOOKOUT MOCLDY 21 7 53 SE6 30.30S WCI 14  
TORONTO LGT RAIN 36 34 93 NE12 30.21R  
BIG TROUT LK CLEAR -8 -11 84 S3 30.41S  
PICKLE LAKE PTCLDY 7 -8 51 SE8 30.37 WCI -6  
DRYDEN CLOUDY 25 21 86 E6 30.27S WCI 18  
KENORA PTCLDY 27 21 80 SE6 30.23S WCI 20  

 
*** MANITOBA***  
 
CITY SKY/WX TMP DP RH WIND PRES REMARKS  
BRANDON CLOUDY 28 27 93 SE13G20 30.05F WCI 18  
DAUPHIN CLOUDY 28 25 86 SE5 30.02F WCI 23  
ISLAND LAKE NOT AVBL  
PILOT MOUND N/A 25 23 93 SE10 N/A WCI 15  
THE PAS FLURRIES 23 12 63 SE13G21 29.98F WCI 11  
THOMPSON CLOUDY 9 -6 52 E5 30.19 WCI 0  
WINNIPEG CLOUDY 30 25 80 SE8 30.16 WCI 23  
LYNN LAKE CLOUDY 12 5 73 SE8 30.07F WCI 1  
CHURCHILL CLEAR -15 -20 76 S8 30.36F WCI -32  
GILLAM MOCLDY 1 -8 66 SE7 30.32F WCI -11  

 
***SASKATCHEWAN***  
 
CITY SKY/WX TMP DP RH WIND PRES REMARKS  
ESTEVAN MOCLDY 36 32 87 SE20G25 29.85S  
KINDERSLEY CLEAR 34 30 86 S9 29.59R  
LLOYDMINSTER LGT RAIN 32 32 100 N7 29.62R FOG  
PRINCE ALBERT FRZ RAIN 30 28 93 E14G20 29.72F WCI 20  
REGINA CLOUDY 36 32 87 SE22G30 29.73F  
YORKTON CLOUDY 30 28 93 SE20G28 29.86F WC  
 
CLICK HERE TO GO TO PREVIOUS BULLETINS.

The Nexlab ND Page
The Nexlab MN Page Main Text Page